Regional Weather Roundup
Issued by NWS

Home | Current Version | Previous Version | Graphics & Text | Print | Product List | Glossary On
Versions: 1 2 3 4 5 6 7 8 9 10 11 12 13 14 15 16 17 18 19 20 21 22 23 24 25 26 27 28 29 30 31 32 33 34 35 36 37 38 39 40 41 42 43 44 45 46 47 48 49 50
000
ASUS45 KABQ 300810
RWRNM
NEW MEXICO REGIONAL WEATHER ROUNDUP
NATIONAL WEATHER SERVICE ALBUQUERQUE NM
200 AM MDT TUE JUN 30 2015

NOTE: "FAIR" MEANS FEW OR NO CLOUDS BELOW 12,000 FEET AGL WITH NO
       SIGNIFICANT WEATHER OR OBSTRUCTIONS TO VISION.

      THIS PRODUCT IS RELEASED AS TWO VERSIONS.  ONE VERSION NEAR
      THE TOP OF THE HOUR CONTAINING PRELIMINARY DATA FROM ALBUQUERQUE
      AND OTHER STATIONS.  A FINAL VERSION WITH ADDITIONAL DATA IS
      ISSUED ABOUT 10 MINUTES AFTER THE HOUR.

NMZ501-503-504-510>518-300900-
NORTHWEST PLATEAU/NORTHCENTRAL MOUNTAINS

CITY           SKY/WX    TMP DP  RH WIND       PRES   REMARKS
FARMINGTON     CLEAR     72  46  39 E12       30.17R
LOS ALAMOS     PTCLDY    65  46  50 S8        30.38F
SANTA FE       CLEAR     65  47  52 SE12      30.32S
TAOS           PTCLDY    61  41  48 E7        30.37F
ANGEL FIRE     PTSUNNY   47  46  97 CALM      30.49F

$$
NMZ402-403-502-505>509-300900-
WESTCENTRAL MOUNTAINS/SOUTHWEST MOUNTAINS

CITY           SKY/WX    TMP DP  RH WIND       PRES   REMARKS
GALLUP         PTCLDY    64  47  53 S5        30.27F
GRANTS         PTCLDY    68  47  47 S8        30.31S
SILVER CITY      N/A     64  59  82 N6        30.24F

$$
NMZ407-409-411-412-300900-
SOUTHERN DESERTS

CITY           SKY/WX    TMP DP  RH WIND       PRES   REMARKS
LORDSBURG      TSTM      68  61  77 SW22      30.13F
DEMING         CLOUDY    73  56  54 W5        30.13S
LAS CRUCES     MOCLDY    73  55  53 SE9       30.14F
HOLLOMAN AFB   PTCLDY    74  54  50 SW9       30.10R
ALAMOGORDO     PTCLDY    75  48  38 N13       30.11F
T OR C         MOCLDY    77  51  40 W3        30.16S

$$
NMZ519>523-300900-
CENTRAL VALLEYS/CENTRAL HIGHLANDS

CITY           SKY/WX    TMP DP  RH WIND       PRES   REMARKS
ALBUQUERQUE    PTCLDY    76  46  34 E17       30.23R
DOUBLE EAGLE   CLEAR     70  47  44 SE10      30.27R
MORIARTY ARPT    N/A     58  49  72 CALM      30.35R
CLINES CORNERS PTCLDY    59  49  69 E8        30.36S
BELEN          FAIR      73  46  37 SE9       30.21F
SOCORRO        CLOUDY    76  49  38 E9        30.20S

$$
NMZ524>526-539-540-300900-
SOUTHCENTRAL MOUNTAINS

CITY           SKY/WX    TMP DP  RH WIND       PRES   REMARKS
RUIDOSO        PTCLDY    59  54  82 W3        30.34F HAZE

$$
NMZ527>531-300900-
NORTHEAST HIGHLANDS/NORTHEAST PLAINS

CITY           SKY/WX    TMP DP  RH WIND       PRES   REMARKS
LAS VEGAS      CLOUDY    56  53  90 NE5       30.37F
RATON          CLEAR     57  53  86 NE3       30.32F
CLAYTON        CLEAR     64  51  62 W6        30.23F

$$
NMZ532>537-300900-
EASTCENTRAL PLAINS

CITY           SKY/WX    TMP DP  RH WIND       PRES   REMARKS
TUCUMCARI      CLEAR     63  53  70 SW6       30.17F
CANNON AFB     CLEAR     65  57  75 N8        30.16F
CLOVIS AIRPORT CLEAR     63  55  77 NW5         N/A

$$
NMZ028-029-538-300900-
SOUTHEAST PLAINS

CITY           SKY/WX    TMP DP  RH WIND       PRES   REMARKS
ROSWELL        CLEAR     68  62  81 E5        30.12F
ARTESIA        CLEAR     70  63  78 NW7       30.11F
CARLSBAD       CLEAR     70  64  81 W7        30.06F
HOBBS          PTCLDY    64  64 100 CALM      30.11F


$$



USA.gov is the U.S. government's official web portal to all federal, state and local government web resources and services.